Hourly Data Report for October 04, 2017

All times are specified in Local Standard Time (LST). Add 1 hour to adjust for Daylight Saving Time where and when it is observed.

RAE LAKES
NORTHWEST TERRITORIES

64°06'42.078" N
117°19'40.086" W
223.20 m
2203359
71165
WYH

Download Data

Hourly Data (October 2017)
Hourly Data Report for October 4, 2017
Temp Definition
°C
Dew Point Temp Definition
°C
Rel Hum Definition
%
Wind Dir Definition
10's deg

Wind Spd Definition
km/h
Visibility Definition
km
Stn Press Definition
kPa
Hmdx Definition


Wind Chill Definition


Weather Definition


TIME
00:00 0.7 -1.1 87 11 8   99.45     LegendNANA
01:00 0.0 -1.8 87 13 5   99.52   -2 LegendNANA
02:00 -0.2 -2.0 88 12 3   99.55   -1 LegendNANA
03:00 -0.2 -2.2 86 12 7   99.55   -3 LegendNANA
04:00 -0.2 -1.8 89 12 6   99.54   -2 LegendNANA
05:00 -0.3 -1.7 90 10 6   99.53   -2 LegendNANA
06:00 -0.3 -2.0 88 12 6   99.51   -2 LegendNANA
07:00 -0.5 -2.1 89 13 6   99.53   -3 LegendNANA
08:00 -0.4 -1.7 91 10 9   99.52   -4 LegendNANA
09:00 -0.3 -1.7 90 11 9   99.52   -3 LegendNANA
10:00 0.0 -1.6 89 11 10   99.50   -3 LegendNANA
11:00 0.4 -1.6 86 13 10   99.50     LegendNANA
12:00 1.0 -1.1 86 13 8   99.49     LegendNANA
13:00 1.4 -1.2 83 13 8   99.46     LegendNANA
14:00 1.6 -1.4 81 12 9   99.43     LegendNANA
15:00 1.7 -1.8 78 11 6   99.41     LegendNANA
16:00 1.8 -1.5 79 14 5   99.42     LegendNANA
17:00 1.9 -1.4 79 11 6   99.40     LegendNANA
18:00 1.3 -1.4 82 8 10   99.32     LegendNANA
19:00 0.7 -1.9 83 8 11   99.30     LegendNANA
20:00 0.3 -2.7 80 12 7   99.31     LegendNANA
21:00 0.5 -2.5 80 11 10   99.23     LegendNANA
22:00 0.5 -2.9 78 11 13   99.15     LegendNANA
23:00 0.6 -3.2 76 14 8   99.17     LegendNANA

Notes on Data Quality.

Legend

  • E = Estimated
  • M = Missing
  • NA = Not Available
  • ‡ = Partner data that is not subject to review by the National Climate Archives
Date modified: